Helicity
207 98 101 98 142 136 107 85 83 74 104 124 113 109 139 129 124 110 109 76 101 114
244 196 121 107 111 119 122 112 118 132 119 124 135 130 134 142 143 140 141 125 112 100
271 176 133 104 94 68 57 85 115 128 141 132 153 154 129 127 130 122 123 131 117 109
222 170 135 86 64 68 66 64 82 126 153 155 158 151 148 134 113 117 104 95 89 96
226 181 143 85 59 45 44 67 88 133 165 177 170 155 159 145 139 126 108 84 84 84
298 239 225 105 59 60 81 98 114 154 177 184 169 158 179 168 148 123 100 85 69 67
376 261 275 142 47 66 103 93 101 129 149 127 163 184 170 158 165 147 123 91 74 77
531 268 242 145 60 57 92 79 68 104 102 143 155 157 130 130 144 125 104 81 79 75
448 349 213 121 97 80 82 65 82 101 117 154 135 119 68 97 108 77 86 84 71 59
400 340 289 157 114 54 66 68 90 110 143 141 125 81 36 36 63 51 72 77 86 81
292 267 225 168 115 40 42 68 114 134 116 102 89 49 67 61 72 61 56 88 113 50
224 232 160 115 100 28 18 70 128 103 81 70 78 62 42 57 41 52 53 53 51 44
195 211 142 92 45 13 40 100 95 114 113 89 62 51 36 43 59 39 93 82 73 48
143 148 112 57 16 14 66 88 129 149 146 110 61 24 42 63 88 95 133 141 144 121
Wind_Speed
60 59 56 58 61 62 62 64 62 62 62 59 58 62 65 66 69 70 75 82 80 80
70 66 63 64 66 67 66 65 62 61 64 62 62 64 66 69 70 68 73 75 79 85
76 72 71 70 70 72 72 70 68 68 68 65 61 60 66 69 67 68 72 75 79 81
78 76 74 72 71 73 75 75 75 71 66 65 63 63 64 68 71 72 74 76 80 82
79 77 75 72 72 73 79 79 75 68 66 62 61 63 63 67 69 74 79 80 81 85
80 77 77 74 74 76 78 78 74 67 65 66 63 64 63 67 73 73 77 79 81 84
80 78 81 77 78 79 78 80 78 72 66 65 60 60 65 72 72 70 76 80 82 82
80 79 80 81 79 78 81 78 75 67 61 59 52 58 68 72 72 74 80 83 86 84
79 78 79 80 78 79 81 77 62 61 53 47 48 59 70 71 74 79 83 87 85 83
77 79 80 80 79 79 78 68 56 51 39 40 51 52 63 74 78 81 82 83 79 75
75 77 79 77 76 76 74 63 50 36 31 41 49 52 62 71 69 67 66 62 52 50
73 75 72 74 74 73 70 61 41 34 33 38 46 50 54 58 53 50 43 37 28 23
74 71 74 73 73 66 57 52 34 34 31 31 33 38 41 42 37 30 25 21 21 17
68 69 69 68 59 53 38 33 32 24 25 26 27 29 29 29 24 20 14 10 9 7
Wind_Direction
298 287 284 284 286 286 287 287 288 288 289 291 291 289 288 287 283 280 276 272 271 270
291 291 288 288 288 288 287 289 289 288 289 289 288 288 284 285 283 280 277 275 273 269
289 289 288 288 288 289 289 289 288 288 289 290 287 286 284 283 283 280 278 276 275 273
289 287 286 287 289 291 292 291 289 289 288 288 284 283 282 281 281 279 278 277 275 273
288 286 286 290 292 293 293 293 294 291 287 285 283 281 280 280 280 278 277 276 275 273
286 285 285 291 295 294 295 295 295 292 287 283 282 278 277 278 278 279 278 276 275 274
282 287 288 293 290 294 297 294 293 291 287 282 283 277 275 276 280 279 278 277 275 274
284 286 287 285 290 295 295 292 293 292 288 283 284 280 275 276 281 280 279 277 275 273
283 285 286 286 291 292 293 292 298 290 286 284 285 280 274 281 283 280 279 277 275 272
286 284 286 288 288 291 293 296 295 288 285 287 284 287 282 284 286 281 279 276 275 273
283 281 281 283 285 289 292 290 289 288 291 288 288 290 289 294 289 284 280 277 276 273
276 274 276 279 281 289 285 281 282 292 289 293 293 299 300 303 297 288 285 286 278 269
280 277 274 275 277 286 284 277 295 292 295 301 307 308 312 308 305 302 298 302 296 290
275 271 271 273 283 279 295 288 288 297 304 311 310 318 319 326 324 335 336 330 335 348